Showing default

TOMORROW-S4, 62386

Orbit data source: Space-Track

TOMORROW-S4, 62386 is a payload satellite owned by Tomorrow.io (US) in LEO that was launched on Sat, 21 Dec 2024 UTC via an FALCON 9 launch vehicle from the Air Force Western Test Range (AFWTR). Payload-class satellites include a variety of spacecraft equipped with specific instruments for various scientific and technological missions. These include communications satellites like Starlink; space stations such as the ISS; scientific satellites like the Hubble; Earth observation satellites from companies like Planet Labs, Umbra, and HawkEye 360; GPS; miniature CubeSats for education and research; and military/defense satellites.

Loading next visibility...
Identifier
62386, 2024-247K
Orbit
LEO
Last TLE update
1 day ago
Origin
Manufacturer
Blue Canyon
Mission
Operational Commercial Weather
Bus & Motor
CUBESAT 6U, Unknown motor
Mass
12 kg wet, 12 kg dry
Launch date (UTC)
2024-12-21 (6 months ago)
Launch vehicle
FALCON 9
Launch site
Air Force Western Test Range (AFWTR)
Object type
Payload
Rocket body
Debris
Shape & HBR
Box + 2 Pan, 1.2 m
Radar Cross Section
0.138 m², Medium (>0.1 m² and < 1m²)

Expand to show TLE details & history

TLE from 1 day ago
0 TOMORROW-S4
1 62386U 24247K   25186.86644337  .00004590  00000-0  20314-3 0  9998
2 62386  44.9947  19.8284 0005155 199.1212 160.9476 15.23045444 30049
Epoch: 2025-07-05T20:47Z
TLE epoch observation values (Epoch: 2025-07-05T20:47:40.707Z)
Latitude
-0.00003°
Longitude
143.81042°
Altitude
500.009 km
Speed
7.614 km/s
True Right ascension
01h 19m 18s
True Declination
0° 00' 00"
Sunlit
Object was in daylight at epoch
Visualization orbit readout
Latitude
27.74405°
Longitude
169.97965°
Altitude
500.487 km
Speed
7.617 km/s
Apparent Right ascension
00h 17m 35s
Apparent Declination
-6° 54' 19"
Sunlit
Object is in daylight
Visualization observer readout
Local Sidereal Time
08:34:58
Azimuth
288.054° WNW
Elevation
-30.447°
Doppler factor
1
Orbital elements
Apogee altitude
501.813 km
Perigee altitude
494.723 km
Semi-major axis
6,876.405 km
Eccentricity
0.00052
Inclination
44.9947°
RAAN
19.8284°
Arg. of periapsis
199.1212°
True anomaly
Unknown
Mean anomaly
160.9476°
Eccentric anomaly
Unknown
Mean motion
3.80628 °/min
Orbital period
94.58 mins
BSTAR
0.00020314
Loading maneuver chart data...
Loading SW <> Apogee altitude chart data...
Loading historical data...
Loading historical data...
Loading historical data...
Loading historical data...
Loading historical data...
Loading historical data...
Loading historical data...

TOMORROW-S4 Visibility forecast

Observer location: undefined°, undefined°

Span
Click to sort rows by Start time (UTC) header in descending order
Start Az.
Max El. time (UTC)
Max El. Az.
Max El.
End time (UTC)
End Az.
7 mins2025-07-06 20:50:08.813Z295.785° NW2025-07-06 20:54:08.813Z70.762° E42.21°2025-07-06 20:57:08.813Z106.057° ESE
4 mins2025-07-06 22:31:08.813Z251.317° W2025-07-06 22:32:08.813Z229.004° WSW22.319°2025-07-06 22:35:08.813Z166.976° S
6 mins2025-07-07 15:30:08.813Z210.248° SW2025-07-07 15:32:08.813Z165.203° S32.81°2025-07-07 15:36:08.813Z76.629° E
6 mins2025-07-07 17:09:08.813Z272.843° WNW2025-07-07 17:11:08.813Z315.966° NNW37.182°2025-07-07 17:15:08.813Z61.925° ENE
5 mins2025-07-07 18:49:08.813Z307.794° NW2025-07-07 18:51:08.813Z3.779° NNE31.495°2025-07-07 18:54:08.813Z69.126° E
6 mins2025-07-07 20:28:08.813Z298.152° NW2025-07-07 20:30:08.813Z327.843° NNW42.357°2025-07-07 20:34:08.813Z107.323° ESE
|